{"data":{"norad_id":55368,"epoch":"2026-09-20T11:05:41.504352Z","epoch_age_seconds":99885,"freshness":"FRESH","line1":"1 55368U 23013AP  26263.46228593 -.00000302  00000+0 -14570-5 0  9992","line2":"2 55368  43.0039 268.5246 0001003 301.0532  59.0221 15.27576125201631","mean_motion":15.27576125,"eccentricity":0.0001003,"inclination_deg":43.0039,"raan_deg":268.5246,"arg_perigee_deg":301.0532,"mean_anomaly_deg":59.0221,"bstar":-1.457e-6,"rev_number":20163,"period_min":94.266987839968,"perigee_km":482.37252107897,"apogee_km":483.74887733744,"semimajor_km":6861.1976992082,"source":"CELESTRAK","updated_at":"2026-09-21T09:00:33.208629Z"}}